{"data":{"norad_id":66815,"intl_designator":"2025-278AA","name":"STARLINK-35985","alt_names":[],"object_type":"PAYLOAD","status":"ACTIVE","operator":null,"country":"US","launch_date":"2025-12-01","launch_site_code":"AFETR","launch_vehicle":null,"mission":null,"orbit_class":"UNKNOWN","rcs_meters":null,"size_class":null,"mass_kg":null,"dimensions":null,"purposes":["comms"],"wikipedia_slug":null,"has_3d_model":false,"image_url":null,"decayed_at":null,"tle_current":{"epoch":"2026-05-25T00:33:16.462080Z","epoch_age_seconds":70111,"freshness":"FRESH","line1":"1 66815U 25278AA  26145.02310720  .00013624  00000+0  50351-3 0  9995","line2":"2 66815  43.0030  43.2404 0000853 267.3674  92.7080 15.27592429 28097","mean_motion":15.27592429,"eccentricity":8.53e-5,"inclination_deg":43.003,"raan_deg":43.2404,"arg_perigee_deg":267.3674,"mean_anomaly_deg":92.708,"bstar":0.00050351,"rev_number":2809,"period_min":94.265981728036,"perigee_km":482.42662339527,"apogee_km":483.5971353941,"semimajor_km":6861.1488793947,"source":"CELESTRAK","updated_at":"2026-05-25T13:38:21.332168Z"}}}